User: anonymous   Login
Location: Unspecified
(0.0000°N, 0.0000°E)
Time: 00:59:30
(UTC+00:00)
Language:

STARLINK-31688 - Orbit

View from above orbital plane
View from above orbital plane
View from above satellite
View from above satellite

Ground track
Ground track

The orbit is defined by the following mean orbital elements,

1 59386U          26145.58206400 +.00000000 +00000-0 +20984-4 0 00004
2 59386  53.1609 260.6668 0001145  71.7733 288.3394 15.34387677    08
Epoch (UTC): 25 May 2026 13:58:10
Eccentricity: 0.0001145
inclination: 53.1609°
perigee height: 462 km
apogee height: 464 km
right ascension of ascending node: 260.6668°
argument of perigee: 71.7733°
revolutions per day: 15.34387677
mean anomaly at epoch: 288.3394°

The dashed part of the orbit path shows where the satellite is in the earth's shadow,  

DLR